OK2JV-13 Weather Reports


time (UTC)temp
F
wind
direction
speed
knots
gust
knots
rain 1hr
in
rain 24hr
in
rain mn
in
humidity
%
barometer
mb
20260905170106 64 45 3.5 6.1 0.00 0.00 0.00 52 1017.1
20260905165102 64 90 3.5 7.0 0.00 0.00 0.00 51 1017.1
20260905164058 64 0 2.6 7.0 0.00 0.00 0.00 51 1016.8
20260905163054 64 45 2.6 3.5 0.00 0.00 0.00 50 1016.9
20260905162050 65 45 3.5 7.0 0.00 0.00 0.00 50 1016.9
20260905161046 65 0 2.6 2.6 0.00 0.00 0.00 49 1016.8
20260905160044 66 45 2.6 4.3 0.00 0.00 0.00 47 1016.6
20260905155038 66 135 3.5 4.3 0.00 0.00 0.00 46 1016.6
20260905154036 66 338 4.3 3.5 0.00 0.00 0.00 44 1016.4
20260905153030 67 90 4.3 7.0 0.00 0.00 0.00 43 1016.6
20260905152026 67 180 4.3 5.2 0.00 0.00 0.00 43 1016.6
20260905151020 67 90 4.3 8.7 0.00 0.00 0.00 42 1016.8
20260905150019 68 90 4.3 4.3 0.00 0.00 0.00 41 1016.5
20260905145013 68 135 4.3 7.8 0.00 0.00 0.00 42 1016.6
20260905144009 68 45 4.3 7.0 0.00 0.00 0.00 41 1016.4
20260905143005 68 45 5.2 6.1 0.00 0.00 0.00 42 1016.5
20260905142001 67 45 4.3 7.0 0.00 0.00 0.00 43 1016.5
20260905140959 67 45 4.3 7.0 0.00 0.00 0.00 42 1016.5
20260905135953 67 45 3.5 8.7 0.00 0.00 0.00 42 1016.6
20260905134947 68 315 4.3 4.3 0.00 0.00 0.00 41 1016.7
20260905133943 69 180 5.2 7.8 0.00 0.00 0.00 40 1016.9
20260905132939 69 270 4.3 8.7 0.00 0.00 0.00 41 1016.6
20260905131935 68 0 5.2 7.0 0.00 0.00 0.00 43 1016.5
20260905130931 68 180 4.3 9.6 0.00 0.00 0.00 42 1016.4
20260905125927 69 0 5.2 6.1 0.00 0.00 0.00 43 1016.5
20260905124923 68 180 3.5 8.7 0.00 0.00 0.00 44 1016.4
20260905123919 67 45 4.3 7.0 0.00 0.00 0.00 45 1016.4
20260905122916 67 45 4.3 4.3 0.00 0.00 0.00 44 1016.7
20260905121911 68 45 4.3 7.8 0.00 0.00 0.00 45 1016.4
20260905120908 68 338 4.3 5.2 0.00 0.00 0.00 46 1016.5
20260905115903 68 45 4.3 4.3 0.00 0.00 0.00 47 1016.5
20260905114859 66 0 4.3 1.7 0.00 0.00 0.00 51 1016.3
20260905113855 65 225 4.3 4.3 0.00 0.00 0.00 51 1016.4
20260905112851 65 45 5.2 8.7 0.00 0.00 0.00 51 1016.6
20260905111849 66 45 4.3 7.0 0.00 0.00 0.00 50 1016.4
20260905110843 65 0 5.2 10.4 0.00 0.00 0.00 52 1016.3
20260905105838 65 90 3.5 8.7 0.00 0.00 0.00 55 1016.3
20260905104835 64 45 3.5 4.3 0.00 0.00 0.00 57 1016.2
20260905103831 64 90 3.5 6.1 0.00 0.00 0.00 58 1016.1
20260905102827 63 45 4.3 3.5 0.00 0.00 0.00 63 1016.3
20260905101822 63 90 3.5 5.2 0.00 0.00 0.00 63 1016.4
20260905100821 62 0 3.5 6.1 0.00 0.00 0.00 66 1016.3
20260905095815 62 135 3.5 5.2 0.00 0.00 0.00 68 1016.3
20260905094811 61 90 2.6 3.5 0.00 0.00 0.00 70 1016.5
20260905093807 61 180 3.5 2.6 0.00 0.00 0.00 71 1016.6
20260905092803 61 135 3.5 6.1 0.00 0.00 0.00 71 1016.5
20260905091801 61 90 2.6 5.2 0.00 0.00 0.00 73 1016.3
20260905090755 60 270 2.6 4.3 0.00 0.00 0.00 75 1016.3
20260905085751 60 90 2.6 3.5 0.00 0.00 0.00 78 1016.2
20260905084746 58 158 3.5 3.5 0.00 0.00 0.00 80 1016.3
20260905083744 57 0 2.6 3.5 0.00 0.00 0.00 84 1016.3
20260905082739 55 45 3.5 5.2 0.00 0.00 0.00 83 1016.2
20260905081734 55 45 3.5 4.3 0.00 0.00 0.00 85 1016.1
20260905080731 54 45 2.6 3.5 0.00 0.00 0.00 91 1016.0
20260905075727 54 135 2.6 4.3 0.00 0.00 0.00 91 1015.8
20260905074725 54 45 1.7 2.6 0.00 0.00 0.00 91 1015.5
20260905073718 54 45 2.6 2.6 0.00 0.00 0.00 91 1015.7
20260905072715 54 90 1.7 3.5 0.00 0.00 0.00 91 1015.4
20260905071710 53 0 2.6 2.6 0.00 0.00 0.00 90 1015.5
20260905070707 53 0 2.6 3.5 0.00 0.00 0.00 90 1015.4
20260905065703 53 45 2.6 3.5 0.00 0.00 0.00 89 1015.3
20260905064659 53 315 2.6 4.3 0.00 0.00 0.00 89 1015.7
20260905063655 54 135 1.7 4.3 0.00 0.00 0.00 89 1015.8
20260905062651 54 90 1.7 2.6 0.00 0.00 0.00 89 1015.4
20260905061646 54 45 1.7 2.6 0.00 0.00 0.00 87 1015.1
20260905060642 54 90 1.7 1.7 0.00 0.00 0.00 88 1014.8
20260905055639 55 90 3.5 5.2 0.00 0.00 0.00 84 1015.0
20260905054635 55 90 2.6 3.5 0.00 0.00 0.00 84 1015.0
20260905053631 55 0 3.5 6.1 0.00 0.00 0.00 84 1014.8
20260905052627 56 0 4.3 4.3 0.00 0.00 0.00 87 1014.8
20260905051623 56 45 3.5 7.0 0.00 0.00 0.00 89 1014.7
20260905050619 56 90 1.7 4.3 0.00 0.00 0.00 89 1014.3
20260905045617 56 45 1.7 2.6 0.00 0.00 0.00 88 1014.3
20260905044611 56 90 1.7 2.6 0.00 0.00 0.00 88 1014.5
20260905043607 57 0 2.6 3.5 0.00 0.00 0.00 88 1014.4
20260905042605 57 90 2.6 2.6 0.00 0.00 0.00 87 1014.1
20260905041559 57 0 1.7 3.5 0.00 0.00 0.00 87 1013.6
20260905040557 57 45 4.3 6.1 0.00 0.00 0.00 85 1013.8
20260905035551 57 90 1.7 3.5 0.00 0.00 0.00 84 1013.5
20260905034546 58 90 2.6 3.5 0.00 0.00 0.00 83 1013.2
20260905033543 58 225 2.6 3.5 0.00 0.00 0.00 82 1013.4
20260905032538 58 45 3.5 7.0 0.00 0.00 0.00 81 1013.9
20260905031535 59 90 4.3 5.2 0.00 0.00 0.00 80 1013.8
20260905030531 59 45 2.6 7.0 0.00 0.00 0.00 80 1013.4
20260905025527 59 90 2.6 2.6 0.00 0.00 0.00 79 1013.3
20260905024522 60 90 3.5 4.3 0.00 0.00 0.00 77 1013.4
20260905023518 60 0 2.6 4.3 0.00 0.00 0.00 74 1013.2
20260905022514 61 90 1.7 2.6 0.00 0.00 0.00 72 1012.8
20260905021510 61 0 2.6 1.7 0.00 0.00 0.00 72 1012.9
20260905020507 61 45 3.5 3.5 0.00 0.00 0.00 71 1012.7
20260905015502 62 45 4.3 6.1 0.00 0.00 0.00 70 1012.8
20260905014458 62 0 4.3 7.0 0.00 0.00 0.00 70 1013.0
20260905013454 62 45 3.5 7.8 0.00 0.00 0.00 69 1012.8
20260905012450 63 0 4.3 6.1 0.00 0.00 0.00 68 1013.0
20260905011445 63 90 5.2 8.7 0.00 0.00 0.00 67 1012.9
20260905010441 64 45 5.2 10.4 0.00 0.00 0.00 63 1012.8
20260905005435 65 45 5.2 7.8 0.00 0.00 0.00 63 1012.6
20260905004430 66 45 5.2 10.4 0.00 0.00 0.00 62 1012.5
20260905003427 68 45 5.2 7.0 0.00 0.00 0.00 62 1012.5
20260905002422 69 45 5.2 8.7 0.00 0.00 0.00 60 1011.9
20260905001418 70 135 3.5 3.5 0.00 0.00 0.00 56 1011.2
20260905000413 70 90 2.6 4.3 0.00 0.00 0.00 56 1010.7
20260904235410 70 22 2.6 5.2 0.00 0.00 0.00 55 1010.6
20260904234406 70 135 2.6 3.5 0.00 0.00 0.00 55 1010.5
20260904233401 70 135 2.6 7.8 0.00 0.00 0.00 55 1010.4
20260904232358 70 68 2.6 2.6 0.00 0.00 0.00 55 1010.7
20260904231354 70 0 2.6 3.5 0.00 0.00 0.00 55 1010.5
20260904230350 70 45 2.6 3.5 0.00 0.00 0.00 55 1010.5
20260904225345 70 45 1.7 3.5 0.00 0.00 0.00 54 1010.5
20260904224342 70 135 2.6 3.5 0.00 0.00 0.00 54 1010.4
20260904223338 71 90 2.6 3.5 0.00 0.00 0.00 54 1010.4
20260904222332 71 45 1.7 4.3 0.00 0.00 0.00 54 1010.4
20260904221327 71 225 1.7 2.6 0.00 0.00 0.00 53 1010.3
20260904220323 71 90 1.7 2.6 0.00 0.00 0.00 53 1010.4
20260904215319 71 90 1.7 3.5 0.00 0.00 0.00 53 1010.5
20260904214316 71 135 1.7 2.6 0.00 0.00 0.00 53 1010.6
20260904213312 71 90 1.7 3.5 0.00 0.00 0.00 53 1010.5
20260904212308 71 225 1.7 2.6 0.00 0.00 0.00 53 1010.5
20260904211304 71 270 1.7 5.2 0.00 0.00 0.00 53 1010.5
20260904210300 71 135 1.7 2.6 0.00 0.00 0.00 53 1010.7
20260904205256 71 90 1.7 2.6 0.00 0.00 0.00 53 1010.5
20260904204252 71 135 1.7 2.6 0.00 0.00 0.00 53 1010.6
20260904203248 71 225 1.7 3.5 0.00 0.00 0.00 53 1010.7
20260904202244 71 112 1.7 1.7 0.00 0.00 0.00 53 1010.8
20260904201242 71 45 1.7 3.5 0.00 0.00 0.00 53 1010.8
20260904200235 71 135 1.7 1.7 0.00 0.00 0.00 54 1010.7
20260904195231 71 180 0.9 2.6 0.00 0.00 0.00 54 1010.8
20260904194227 71 225 0.0 1.7 0.00 0.00 0.00 54 1010.9
20260904193223 71 225 0.9 1.7 0.00 0.00 0.00 54 1011.3
20260904192219 71 180 0.9 0.9 0.00 0.00 0.00 54 1011.3
20260904191215 71 225 0.0 0.9 0.00 0.00 0.00 53 1011.4
20260904190212 72 225 0.0 1.7 0.00 0.00 0.00 53 1011.4
20260904185206 72 135 0.9 1.7 0.00 0.00 0.00 53 1011.3
20260904184202 72 135 0.0 1.7 0.00 0.00 0.00 53 1011.5
20260904183158 73 180 0.0 1.7 0.00 0.00 0.00 50 1011.5
20260904182154 73 270 0.9 1.7 0.00 0.00 0.00 49 1011.5
20260904181150 73 315 0.9 1.7 0.00 0.00 0.00 48 1011.3
20260904180147 74 270 0.9 1.7 0.00 0.00 0.00 47 1011.2
20260904175143 75 180 0.9 1.7 0.00 0.00 0.00 46 1011.0
20260904174140 75 180 1.7 1.7 0.00 0.00 0.00 46 1010.9
20260904173137 76 0 1.7 2.6 0.00 0.00 0.00 45 1010.9
20260904172131 76 90 2.6 5.2 0.00 0.00 0.00 46 1011.0
20260904171127 76 0 2.6 2.6 0.00 0.00 0.00 45 1010.9